Hourly Data Report for October 17, 2013

All times are specified in Local Standard Time (LST). Add 1 hour to adjust for Daylight Saving Time where and when it is observed.

CAPE DORSET A
NUNAVUT

64°13'49.000" N
76°31'30.000" W
48.20 m
2400637
71366
YTE

Download Data

Hourly Data (October 2013)
Hourly Data Report for October 17, 2013
Temp Definition
°C
Dew Point Temp Definition
°C
Rel Hum Definition
%
Wind Dir Definition
10's deg

Wind Spd Definition
km/h
Visibility Definition
km
Stn Press Definition
kPa
Hmdx Definition


Wind Chill Definition


Weather Definition


TIME
00:00 Legend Double Dagger 0.5 -1.3 88 13 32 16.1 100.17     LegendNANA
01:00 Legend Double Dagger 0.7 -0.9 89 13 26 16.1 100.16     LegendNANA
02:00 Legend Double Dagger 0.8 -1.0 88 15 26 16.1 100.15     LegendNANA
03:00 Legend Double Dagger 0.7 -0.9 89 15 26 16.1 100.11     LegendNANA
04:00 Legend Double Dagger 0.6 -1.0 89 13 28 16.1 100.08     LegendNANA
05:00 Legend Double Dagger 0.7 -1.2 87 14 22 16.1 100.08     LegendNANA
06:00 Legend Double Dagger 0.7 -1.2 87 13 26 16.1 100.06     LegendNANA
07:00 Legend Double Dagger 0.8 -1.1 87 14 32 16.1 100.05     LegendNANA
08:00 Legend Double Dagger 0.9 -1.2 86 14 35 16.1 100.05     LegendNANA
09:00 Legend Double Dagger 1.0 -1.1 86 13 32 16.1 100.02     LegendNANA
10:00 Legend Double Dagger 0.8 -1.1 87 13 35 16.1 99.96     LegendNANA
11:00 Legend Double Dagger 0.8 -0.8 89 13 32 16.1 99.94     LegendNANA
12:00 Legend Double Dagger 0.9 -0.7 89 13 28 16.1 99.93     LegendNANA
13:00 Legend Double Dagger 0.8 -0.7 90 13 26 16.1 99.87     LegendNANA
14:00 Legend Double Dagger 0.9 -0.7 89 13 32 16.1 99.83     LegendNANA
15:00 Legend Double Dagger 1.1 -0.6 89 13 28 16.1 99.79     LegendNANA
16:00 Legend Double Dagger 1.4 -0.5 87 13 35 16.1 99.74     LegendNANA
17:00 Legend Double Dagger 1.2 -0.6 88 13 42 16.1 99.70     LegendNANA
18:00 Legend Double Dagger 0.9 -0.4 91 13 37 16.1 99.66     LegendNANA
19:00 Legend Double Dagger 0.9 -0.4 91 13 35 16.1 99.61     LegendNANA
20:00 Legend Double Dagger 1.1 -0.2 91 13 42 16.1 99.55     LegendNANA
21:00 Legend Double Dagger 0.9 -0.1 93 13 45 6.4 99.49     LegendNANA
22:00 Legend Double Dagger 0.6 0.0 96 13 37 4.0 99.46     LegendNANA
23:00 Legend Double Dagger 0.6 0.2 97 14 35 8.1 99.41     LegendNANA

Notes on Data Quality.

Legend

  • E = Estimated
  • M = Missing
  • NA = Not Available
  • ‡ = Partner data that is not subject to review by the National Climate Archives
Date modified: